Notices

What's New in latest Release from April 7th, 2021:

- Updated Glossary, including Speed of Maximum Gust, and Total Hourly Precipitation

- Updated national and regional climate services offices contacts and prices information

- Addition of station inventory lists for 1981-2010, 1971-2000, and 1961-1990 Normals.

If you haven't already, please take our survey and provide feedback about our website: https://eccc.sondage-survey.ca/f/LanguageSelection.aspx?s=442ca660-fcf1-47c0-95a9-59707d6fd709

Hourly Data Report for December 13, 2019

CARBERRY CS
MANITOBA
Current Station Operator: ECCC - MSC

49°54'20.900" N
99°21'26.800" W
383.50 m
5010547
71170
WZE

Download Data

Hourly Data (December 2019)
Hourly Data Report for December 13, 2019
TIME
LST
Temp Definition
°C
Dew Point Definition
°C
Rel Hum Definition
%
Precip. Amount Definition
mm

Wind Dir Definition
10's deg

Wind Spd Definition
km/h
Visibility Definition
km
Stn Press Definition
kPa
Hmdx Definition


Wind Chill Definition


Weather Definition


00:00 -14.9 -17.6 80 0.0 12 14   96.74   -22 LegendNANA
01:00 -14.3 -16.9 81 0.0 11 13   96.65   -21 LegendNANA
02:00 -13.9 -16.3 82 0.0 12 12   96.56   -21 LegendNANA
03:00 -13.5 -15.6 84 0.0 9 8   96.57   -19 LegendNANA
04:00 -13.6 -15.5 85 0.0 4 10   96.52   -20 LegendNANA
05:00 -13.9 -16.1 84 0.2 5 13   96.51   -21 LegendNANA
06:00 -14.0 -16.2 84 0.4 5 14   96.50   -21 LegendNANA
07:00 -14.0 -16.2 83 0.2 5 12   96.52   -21 LegendNANA
08:00 -14.0 -16.2 84 0.2 3 10   96.56   -20 LegendNANA
09:00 -14.1 -16.1 84 0.6 36 11   96.65   -21 LegendNANA
10:00 -14.2 -16.6 82 0.2 1 14   96.70   -22 LegendNANA
11:00 -13.8 -16.5 81 0.0 36 17   96.75   -22 LegendNANA
12:00 -13.5 -16.5 78 0.0 1 17   96.78   -22 LegendNANA
13:00 -13.4 -16.5 78 0.0 36 20   96.84   -22 LegendNANA
14:00 -13.9 -17.3 76 0.0 35 20   96.89   -23 LegendNANA
15:00 -15.1 -18.6 75 0.0 36 23   96.94   -25 LegendNANA
16:00 -15.2 -18.4 77 0.0 35 16   97.05   -23 LegendNANA
17:00 -17.6 -20.5 78 0.0 35 11   97.16   -25 LegendNANA
18:00 -17.8 -20.3 81 0.0 35 19   97.22   -27 LegendNANA
19:00 -16.8 -19.3 81 0.2 35 22   97.25   -27 LegendNANA
20:00 -16.7 -19.3 80 0.0 36 25   97.29   -27 LegendNANA
21:00 -16.7 -19.2 81 0.0 36 22   97.36   -27 LegendNANA
22:00 -16.9 -19.5 80 0.0 1 20   97.38   -27 LegendNANA
23:00 -17.3 -20.1 79 0.0 1 21   97.41   -27 LegendNANA

Notes on Data Quality.

Legend

  • E = Estimated
  • M = Missing
  • NA = Not Available*
  • [empty] = Indicates an unobserved value
Date modified: